KA1CNF Weather Reports


time (UTC)temp
F
wind
direction
speed
knots
gust
knots
rain 1hr
in
rain 24hr
in
rain mn
in
humidity
%
barometer
mb
20260505040015 65 202 6.1 13.9 0.00 0.00 0.00 60 1001.3
20260505033017 60 180 5.2 23.5 0.00 0.00 0.00 63 1001.3
20260505030017 57 247 2.6 4.3 0.00 0.00 0.00 72 1001.1
20260505023037 58 247 0.9 2.6 0.00 0.00 0.00 67 1001.2
20260505020017 60 0.0 0.0 0.00 0.00 0.00 60 1001.6
20260505013036 62 0.0 0.0 0.00 0.00 0.00 56 1001.4
20260505010038 65 0.0 0.0 0.00 0.00 0.00 49 1001.1
20260505003036 68 0.0 1.7 0.00 0.00 0.00 44 1001.1
20260505000037 70 247 1.7 4.3 0.00 0.00 0.00 40 1001.1
20260504233016 72 247 1.7 5.2 0.00 0.00 0.00 39 1001.0
20260504230016 73 225 3.5 12.2 0.00 0.00 0.00 35 1000.9
20260504223036 74 202 4.3 12.2 0.00 0.00 0.00 36 1000.8
20260504220016 75 225 5.2 15.6 0.00 0.00 0.00 35 1001.0
20260504213017 76 247 4.3 18.2 0.00 0.00 0.00 38 1001.2
20260504210016 76 225 5.2 15.6 0.00 0.00 0.00 35 1001.5
20260504203016 75 225 6.1 14.8 0.00 0.00 0.00 37 1001.7
20260504200056 75 225 5.2 19.1 0.00 0.00 0.00 41 1002.0
20260504193016 75 225 5.2 12.2 0.00 0.00 0.00 37 1002.4
20260504190016 74 225 5.2 13.9 0.00 0.00 0.00 40 1002.8
20260504183016 74 225 6.1 17.4 0.00 0.00 0.00 43 1003.2
20260504180117 73 225 5.2 14.8 0.00 0.00 0.00 48 1003.5
20260504173015 71 225 6.1 20.0 0.00 0.00 0.00 48 1003.7
20260504050016 53 225 3.5 7.0 0.00 0.00 0.00 58 1007.2
20260504043015 54 247 2.6 7.0 0.00 0.00 0.00 57 1007.3